TimePDT,TemperatureF,Dew PointF,Humidity,Sea Level PressureIn,VisibilityMPH,Wind Direction,Wind SpeedMPH,Gust SpeedMPH,PrecipitationIn,Events,Conditions,WindDirDegrees,DateUTC
12:53 AM,54.0,46.0,75,29.60,10.0,WSW,13.8,24.2,0.01,Rain,Light Rain,240,2013-09-29 07:53:00
1:53 AM,53.1,46.9,80,29.63,10.0,SSW,23.0,36.8,0.01,Rain,Light Rain,200,2013-09-29 08:53:00
2:53 AM,54.0,45.0,72,29.62,10.0,SW,23.0,34.5,0.00,,Partly Cloudy,220,2013-09-29 09:53:00
3:53 AM,53.1,44.1,71,29.62,10.0,SW,18.4,24.2,N/A,,Clear,220,2013-09-29 10:53:00
4:53 AM,54.0,43.0,66,29.66,10.0,Variable,4.6,-,N/A,,Clear,0,2013-09-29 11:53:00
5:53 AM,53.1,43.0,69,29.65,10.0,SSW,17.3,25.3,N/A,,Clear,210,2013-09-29 12:53:00
6:53 AM,54.0,43.0,66,29.65,10.0,SSW,18.4,-,N/A,,Clear,200,2013-09-29 13:53:00
7:53 AM,55.0,44.1,67,29.66,10.0,SSW,13.8,-,N/A,,Clear,200,2013-09-29 14:53:00
8:53 AM,55.9,44.1,64,29.68,10.0,SW,5.8,-,N/A,,Clear,220,2013-09-29 15:53:00
9:53 AM,59.0,44.1,58,29.67,10.0,SSW,16.1,-,N/A,,Clear,210,2013-09-29 16:53:00
10:53 AM,61.0,44.1,54,29.68,10.0,SSW,11.5,-,N/A,,Clear,210,2013-09-29 17:53:00
11:53 AM,62.1,44.1,52,29.68,10.0,South,17.3,-,N/A,,Partly Cloudy,190,2013-09-29 18:53:00
12:53 PM,63.0,45.0,52,29.67,10.0,SSW,12.7,-,N/A,,Scattered Clouds,210,2013-09-29 19:53:00
1:53 PM,63.0,43.0,48,29.66,10.0,SW,18.4,25.3,N/A,,Overcast,220,2013-09-29 20:53:00
2:53 PM,63.0,43.0,48,29.66,10.0,SW,11.5,20.7,N/A,,Overcast,230,2013-09-29 21:53:00
3:53 PM,63.0,44.1,50,29.65,10.0,South,10.4,-,N/A,,Overcast,180,2013-09-29 22:53:00
4:53 PM,62.1,46.0,56,29.62,10.0,SE,6.9,-,N/A,,Overcast,140,2013-09-29 23:53:00
5:53 PM,61.0,46.0,58,29.60,10.0,SSE,9.2,-,0.00,,Overcast,160,2013-09-30 00:53:00
6:53 PM,60.1,46.9,62,29.57,10.0,ESE,12.7,-,N/A,,Overcast,120,2013-09-30 01:53:00
7:53 PM,60.1,46.9,62,29.53,10.0,SE,15.0,-,N/A,,Overcast,140,2013-09-30 02:53:00
8:53 PM,63.0,45.0,52,29.47,10.0,South,17.3,23.0,N/A,,Overcast,180,2013-09-30 03:53:00
9:53 PM,62.1,46.9,58,29.42,10.0,SE,17.3,25.3,N/A,,Clear,140,2013-09-30 04:53:00
10:53 PM,63.0,46.9,56,29.37,10.0,SE,15.0,-,N/A,,Partly Cloudy,130,2013-09-30 05:53:00
11:53 PM,64.0,48.0,56,29.40,10.0,SW,20.7,31.1,0.00,,Overcast,220,2013-09-30 06:53:00